CEB993 RPLL-RPMR

Flight info

Callsign CEB993
Flight time 1h 24m
Altitude 35000
Route VERDE2R VERDE A461 SAJ W3 IOO B472 COT W19 MELBY MELBY3R
Aircraft A320/M-SDE3FGHIRWY/LB1

Departure

Time 2026-04-26 14:11
Airport Ninoy Aquino International Airport (RPLL)

Arrival

Time 2026-04-26 15:36
Airport General Santos International Airport (RPMR)
Time Latitude Longitude Altitude Speed Heading
2026-04-26 13:26 14.52289 121.00893 69 ft 0 kts 45°
2026-04-26 13:53 14.52288 121.00892 69 ft 2 kts 45°
2026-04-26 13:53 14.52270 121.00873 62 ft 4 kts 45°
2026-04-26 13:53 14.52251 121.00853 62 ft 4 kts 45°
2026-04-26 13:54 14.52235 121.00836 69 ft 3 kts 45°
2026-04-26 13:54 14.52215 121.00822 69 ft 4 kts
2026-04-26 13:54 14.52192 121.00831 62 ft 4 kts 316°
2026-04-26 13:55 14.52164 121.00860 66 ft 0 kts 315°
2026-04-26 13:59 14.52165 121.00859 62 ft 1 kts 315°
2026-04-26 13:59 14.52178 121.00846 63 ft 6 kts 315°
2026-04-26 14:00 14.52306 121.00713 62 ft 8 kts 315°
2026-04-26 14:00 14.52343 121.00676 64 ft 7 kts 315°
2026-04-26 14:00 14.52369 121.00649 62 ft 12 kts 315°
2026-04-26 14:01 14.52467 121.00547 69 ft 6 kts 314°
2026-04-26 14:01 14.52469 121.00545 69 ft 0 kts 314°
2026-04-26 14:05 14.52478 121.00535 64 ft 6 kts 316°
2026-04-26 14:06 14.52494 121.00504 69 ft 4 kts 264°
2026-04-26 14:06 14.52478 121.00484 63 ft 3 kts 226°
2026-04-26 14:06 14.52442 121.00446 62 ft 9 kts 226°
2026-04-26 14:06 14.52435 121.00437 67 ft 0 kts 226°
2026-04-26 14:08 14.52433 121.00436 61 ft 2 kts 226°
2026-04-26 14:08 14.52400 121.00399 61 ft 8 kts 227°
2026-04-26 14:08 14.52363 121.00401 62 ft 2 kts 135°
2026-04-26 14:10 14.52359 121.00404 62 ft 5 kts 135°
2026-04-26 14:10 14.52156 121.00615 65 ft 80 kts 135°
2026-04-26 14:11 14.50875 121.01938 623 ft 146 kts 135°
2026-04-26 14:11 14.50397 121.02425 1102 ft 145 kts 135°
2026-04-26 14:11 14.49678 121.03160 1748 ft 148 kts 135°
2026-04-26 14:12 14.48894 121.03959 2044 ft 169 kts 135°
2026-04-26 14:12 14.47996 121.04864 2299 ft 192 kts 135°
2026-04-26 14:12 14.46974 121.05878 2522 ft 216 kts 135°
2026-04-26 14:12 14.45822 121.07010 2847 ft 241 kts 135°
2026-04-26 14:13 14.43203 121.09576 3000 ft 266 kts 135°
2026-04-26 14:13 14.41854 121.10893 3003 ft 267 kts 135°
2026-04-26 14:13 14.40346 121.12017 3302 ft 273 kts 155°
2026-04-26 14:14 14.38490 121.12443 4229 ft 277 kts 179°
2026-04-26 14:14 14.36560 121.12311 5135 ft 278 kts 184°
2026-04-26 14:14 14.34626 121.12120 6012 ft 280 kts 184°
2026-04-26 14:14 14.32681 121.11911 6862 ft 283 kts 184°
2026-04-26 14:15 14.30714 121.11695 7630 ft 287 kts 184°
2026-04-26 14:15 14.28707 121.11475 8364 ft 292 kts 185°
2026-04-26 14:15 14.26672 121.11254 9074 ft 297 kts 185°
2026-04-26 14:15 14.24599 121.11033 9778 ft 301 kts 185°
2026-04-26 14:16 14.22492 121.10809 10316 ft 313 kts 185°
2026-04-26 14:16 14.20247 121.10570 10498 ft 336 kts 185°
2026-04-26 14:16 14.17849 121.10314 10634 ft 358 kts 185°
2026-04-26 14:16 14.15319 121.10047 10972 ft 371 kts 185°
2026-04-26 14:17 14.12732 121.09770 11574 ft 375 kts 185°
2026-04-26 14:17 14.10125 121.09493 12228 ft 378 kts 185°
2026-04-26 14:17 14.07495 121.09216 12884 ft 381 kts 185°
2026-04-26 14:17 14.04850 121.08937 13503 ft 384 kts 186°
2026-04-26 14:18 14.02183 121.08656 14100 ft 387 kts 186°
2026-04-26 14:18 13.99492 121.08370 14683 ft 390 kts 186°
2026-04-26 14:18 13.96782 121.08082 15223 ft 393 kts 186°
2026-04-26 14:18 13.94048 121.07791 15758 ft 397 kts 186°
2026-04-26 14:19 13.91292 121.07499 16274 ft 400 kts 186°
2026-04-26 14:19 13.88518 121.07207 16760 ft 403 kts 186°
2026-04-26 14:19 13.85713 121.06914 17226 ft 406 kts 186°
2026-04-26 14:19 13.82895 121.06618 17691 ft 409 kts 186°
2026-04-26 14:20 13.80058 121.06319 18138 ft 412 kts 187°
2026-04-26 14:20 13.77198 121.06016 18579 ft 414 kts 187°
2026-04-26 14:20 13.74329 121.05711 18999 ft 417 kts 187°
2026-04-26 14:20 13.71425 121.05403 19401 ft 420 kts 187°
2026-04-26 14:21 13.68508 121.05093 19784 ft 423 kts 187°
2026-04-26 14:21 13.65574 121.04783 19902 ft 424 kts 187°
2026-04-26 14:21 13.62638 121.04473 19926 ft 424 kts 187°
2026-04-26 14:21 13.59697 121.04163 20218 ft 427 kts 187°
2026-04-26 14:22 13.56733 121.03851 20617 ft 429 kts 187°
2026-04-26 14:22 13.53754 121.03536 20987 ft 432 kts 187°
2026-04-26 14:22 13.50751 121.03230 21361 ft 435 kts 185°
2026-04-26 14:22 13.47714 121.03192 21688 ft 438 kts 181°
2026-04-26 14:23 13.44658 121.03220 22034 ft 441 kts 180°
2026-04-26 14:23 13.41584 121.03254 22368 ft 443 kts 180°
2026-04-26 14:23 13.38486 121.03291 22695 ft 446 kts 180°
2026-04-26 14:23 13.35376 121.03326 23000 ft 448 kts 181°
2026-04-26 14:24 13.32247 121.03359 23299 ft 451 kts 181°
2026-04-26 14:24 13.29108 121.03390 23598 ft 453 kts 181°
2026-04-26 14:24 13.25948 121.03419 23883 ft 454 kts 181°
2026-04-26 14:24 13.22781 121.03449 24142 ft 456 kts 181°
2026-04-26 14:25 13.19600 121.03480 24408 ft 458 kts 181°
2026-04-26 14:25 13.16403 121.03509 24706 ft 460 kts 181°
2026-04-26 14:25 13.13198 121.03539 25007 ft 461 kts 181°
2026-04-26 14:25 13.09991 121.03571 25270 ft 462 kts 181°
2026-04-26 14:26 13.06771 121.03604 25564 ft 463 kts 181°
2026-04-26 14:26 13.03541 121.03639 25839 ft 464 kts 181°
2026-04-26 14:26 13.00309 121.03676 26117 ft 466 kts 181°
2026-04-26 14:26 12.97066 121.03711 26389 ft 466 kts 181°
2026-04-26 14:27 12.93819 121.03743 26648 ft 467 kts 181°
2026-04-26 14:27 12.90562 121.03775 26892 ft 468 kts 181°
2026-04-26 14:27 12.87299 121.03808 27136 ft 470 kts 180°
2026-04-26 14:27 12.84024 121.03841 27392 ft 471 kts 181°
2026-04-26 14:28 12.80747 121.03872 27643 ft 472 kts 180°
2026-04-26 14:28 12.77462 121.03904 27887 ft 473 kts 180°
2026-04-26 14:28 12.74169 121.03935 28133 ft 474 kts 181°
2026-04-26 14:28 12.70873 121.03968 28414 ft 473 kts 180°
2026-04-26 14:29 12.67586 121.04002 28762 ft 471 kts 180°
2026-04-26 14:29 12.64312 121.04033 29125 ft 470 kts 180°
2026-04-26 14:29 12.61052 121.04065 29466 ft 468 kts 180°
2026-04-26 14:29 12.57797 121.04097 29816 ft 467 kts 180°
2026-04-26 14:30 12.54557 121.04129 30165 ft 465 kts 181°
2026-04-26 14:30 12.51330 121.04162 30504 ft 463 kts 180°
2026-04-26 14:30 12.48114 121.04195 30818 ft 462 kts 181°
2026-04-26 14:30 12.44900 121.04223 31146 ft 461 kts 181°
2026-04-26 14:31 12.41702 121.04294 31469 ft 460 kts 176°
2026-04-26 14:31 12.38543 121.04835 31757 ft 461 kts 166°
2026-04-26 14:31 12.35566 121.05941 32043 ft 463 kts 156°
2026-04-26 14:31 12.32789 121.07616 32342 ft 465 kts 146°
2026-04-26 14:32 12.30325 121.09768 32651 ft 466 kts 139°
2026-04-26 14:32 12.27966 121.12038 32947 ft 465 kts 139°
2026-04-26 14:32 12.25608 121.14299 33252 ft 464 kts 139°
2026-04-26 14:32 12.23251 121.16551 33562 ft 464 kts 139°
2026-04-26 14:33 12.20896 121.18800 33879 ft 462 kts 139°
2026-04-26 14:33 12.18548 121.21042 34209 ft 462 kts 139°
2026-04-26 14:33 12.16207 121.23280 34509 ft 460 kts 139°
2026-04-26 14:33 12.13870 121.25511 34766 ft 460 kts 139°
2026-04-26 14:34 12.11527 121.27747 34873 ft 462 kts 139°
2026-04-26 14:34 12.06825 121.32239 34887 ft 463 kts 139°
2026-04-26 14:35 12.02116 121.36729 34888 ft 463 kts 139°
2026-04-26 14:35 11.97405 121.41214 34887 ft 462 kts 139°
2026-04-26 14:36 11.92713 121.45695 34888 ft 461 kts 139°
2026-04-26 14:36 11.88018 121.50171 34886 ft 461 kts 139°
2026-04-26 14:37 11.83322 121.54640 34889 ft 462 kts 139°
2026-04-26 14:37 11.78629 121.59109 34891 ft 461 kts 139°
2026-04-26 14:38 11.73939 121.63579 34897 ft 461 kts 139°
2026-04-26 14:38 11.69242 121.68048 34902 ft 461 kts 139°
2026-04-26 14:39 11.64550 121.72509 34903 ft 461 kts 139°
2026-04-26 14:39 11.59856 121.76969 34915 ft 461 kts 139°
2026-04-26 14:40 11.55166 121.81426 34920 ft 460 kts 139°
2026-04-26 14:40 11.50508 121.85848 34919 ft 461 kts 139°
2026-04-26 14:41 11.45787 121.90324 34921 ft 461 kts 139°
2026-04-26 14:41 11.41086 121.94780 34925 ft 461 kts 139°
2026-04-26 14:42 11.36389 121.99235 34926 ft 461 kts 139°
2026-04-26 14:42 11.31693 122.03696 34930 ft 461 kts 139°
2026-04-26 14:43 11.27001 122.08145 34929 ft 461 kts 139°
2026-04-26 14:43 11.22307 122.12587 34933 ft 461 kts 139°
2026-04-26 14:44 11.17640 122.16995 34929 ft 460 kts 139°
2026-04-26 14:44 11.12912 122.21471 34926 ft 461 kts 139°
2026-04-26 14:45 11.08217 122.25923 34931 ft 462 kts 139°
2026-04-26 14:45 11.03545 122.30342 34931 ft 462 kts 139°
2026-04-26 14:46 10.98839 122.34785 34928 ft 461 kts 139°
2026-04-26 14:46 10.94130 122.39221 34924 ft 461 kts 139°
2026-04-26 14:47 10.89423 122.43654 34925 ft 461 kts 139°
2026-04-26 14:47 10.84679 122.48035 34921 ft 459 kts 144°
2026-04-26 14:48 10.79194 122.51260 34919 ft 455 kts 156°
2026-04-26 14:48 10.73446 122.53976 34918 ft 456 kts 156°
2026-04-26 14:49 10.67699 122.56698 34919 ft 456 kts 156°
2026-04-26 14:49 10.61945 122.59426 34922 ft 456 kts 156°
2026-04-26 14:50 10.56198 122.62145 34921 ft 456 kts 156°
2026-04-26 14:50 10.50446 122.64863 34921 ft 456 kts 156°
2026-04-26 14:51 10.44684 122.67582 34924 ft 456 kts 156°
2026-04-26 14:51 10.38920 122.70301 34927 ft 457 kts 156°
2026-04-26 14:52 10.33155 122.73020 34931 ft 457 kts 156°
2026-04-26 14:52 10.27384 122.75740 34935 ft 457 kts 156°
2026-04-26 14:53 10.21612 122.78470 34939 ft 457 kts 156°
2026-04-26 14:53 10.15841 122.81194 34938 ft 457 kts 156°
2026-04-26 14:54 10.10070 122.83907 34935 ft 457 kts 156°
2026-04-26 14:54 10.04305 122.86621 34935 ft 456 kts 156°
2026-04-26 14:55 9.98548 122.89336 34930 ft 456 kts 156°
2026-04-26 14:55 9.92786 122.92043 34925 ft 456 kts 156°
2026-04-26 14:56 9.88000 122.94292 34923 ft 457 kts 156°
2026-04-26 14:56 9.81298 122.97446 34922 ft 457 kts 156°
2026-04-26 14:57 9.76462 122.99720 34927 ft 458 kts 156°
2026-04-26 14:57 9.70680 123.02435 34927 ft 458 kts 156°
2026-04-26 14:58 9.64899 123.05152 34927 ft 457 kts 156°
2026-04-26 14:58 9.59123 123.07867 34923 ft 458 kts 156°
2026-04-26 14:59 9.53337 123.10585 34925 ft 458 kts 156°
2026-04-26 14:59 9.47561 123.13299 34924 ft 458 kts 156°
2026-04-26 15:00 9.41782 123.16011 34920 ft 457 kts 156°
2026-04-26 15:00 9.36007 123.18717 34915 ft 457 kts 156°
2026-04-26 15:01 9.30235 123.21423 34911 ft 457 kts 156°
2026-04-26 15:01 9.24464 123.24124 34909 ft 457 kts 156°
2026-04-26 15:02 9.18698 123.26826 34906 ft 457 kts 156°
2026-04-26 15:02 9.12923 123.29525 34905 ft 458 kts 156°
2026-04-26 15:03 9.07137 123.32232 34910 ft 458 kts 156°
2026-04-26 15:03 9.01359 123.34938 34911 ft 458 kts 155°
2026-04-26 15:04 8.95572 123.37647 34908 ft 458 kts 155°
2026-04-26 15:04 8.89788 123.40356 34908 ft 458 kts 155°
2026-04-26 15:05 8.84042 123.43052 34908 ft 459 kts 155°
2026-04-26 15:05 8.78211 123.45776 34908 ft 459 kts 155°
2026-04-26 15:06 8.72418 123.48480 34910 ft 459 kts 155°
2026-04-26 15:06 8.66618 123.51188 34910 ft 459 kts 155°
2026-04-26 15:07 8.57922 123.55256 34915 ft 459 kts 155°
2026-04-26 15:07 8.52131 123.57958 34917 ft 458 kts 155°
2026-04-26 15:08 8.46339 123.60654 34918 ft 458 kts 155°
2026-04-26 15:08 8.40592 123.63335 34920 ft 458 kts 154°
2026-04-26 15:09 8.34769 123.66063 34924 ft 459 kts 154°
2026-04-26 15:09 8.28976 123.68768 34923 ft 459 kts 155°
2026-04-26 15:10 8.24160 123.71006 34920 ft 459 kts 155°
2026-04-26 15:10 8.17372 123.74162 34922 ft 460 kts 154°
2026-04-26 15:11 8.11610 123.76848 34929 ft 459 kts 154°
2026-04-26 15:11 8.05811 123.79547 34940 ft 459 kts 154°
2026-04-26 15:12 8.00012 123.82242 34938 ft 459 kts 154°
2026-04-26 15:12 7.94212 123.84937 34942 ft 459 kts 154°
2026-04-26 15:13 7.88421 123.87636 34939 ft 458 kts 154°
2026-04-26 15:13 7.82633 123.90331 34931 ft 458 kts 154°
2026-04-26 15:14 7.76843 123.93022 34930 ft 458 kts 154°
2026-04-26 15:14 7.71063 123.95708 34926 ft 458 kts 154°
2026-04-26 15:15 7.65270 123.98399 34923 ft 458 kts 154°
2026-04-26 15:15 7.59490 124.01085 34928 ft 458 kts 154°
2026-04-26 15:16 7.53699 124.03779 34934 ft 458 kts 154°
2026-04-26 15:16 7.47904 124.06466 34936 ft 459 kts 154°
2026-04-26 15:17 7.43087 124.08698 34935 ft 459 kts 154°
2026-04-26 15:17 7.36304 124.11844 34930 ft 459 kts 154°
2026-04-26 15:18 7.33399 124.13189 34813 ft 460 kts 154°
2026-04-26 15:18 7.30495 124.14536 34584 ft 460 kts 154°
2026-04-26 15:18 7.27588 124.15885 34328 ft 460 kts 154°
2026-04-26 15:18 7.24680 124.17235 33499 ft 463 kts 154°
2026-04-26 15:19 7.21735 124.18601 32518 ft 467 kts 154°
2026-04-26 15:19 7.18775 124.19975 31497 ft 471 kts 153°
2026-04-26 15:19 7.15934 124.21631 30428 ft 474 kts 144°
2026-04-26 15:19 7.13324 124.23673 29293 ft 477 kts 140°
2026-04-26 15:20 7.10736 124.25781 28059 ft 482 kts 140°
2026-04-26 15:20 7.08108 124.27918 26782 ft 487 kts 140°
2026-04-26 15:20 7.05456 124.30071 25569 ft 491 kts 140°
2026-04-26 15:20 7.02815 124.32211 24735 ft 484 kts 140°
2026-04-26 15:21 7.00202 124.34326 23830 ft 479 kts 140°
2026-04-26 15:21 6.97616 124.36421 22958 ft 476 kts 140°
2026-04-26 15:21 6.95050 124.38496 22115 ft 470 kts 140°
2026-04-26 15:21 6.92511 124.40542 21317 ft 466 kts 140°
2026-04-26 15:22 6.89999 124.42569 20534 ft 461 kts 140°
2026-04-26 15:22 6.87518 124.44577 19776 ft 455 kts 140°
2026-04-26 15:22 6.85068 124.46563 19035 ft 450 kts 140°
2026-04-26 15:22 6.82644 124.48528 18330 ft 444 kts 140°
2026-04-26 15:23 6.80249 124.50468 17647 ft 439 kts 140°
2026-04-26 15:23 6.77894 124.52377 17006 ft 433 kts 140°
2026-04-26 15:23 6.75566 124.54260 16399 ft 426 kts 140°
2026-04-26 15:23 6.73268 124.56116 15799 ft 420 kts 140°
2026-04-26 15:24 6.71006 124.57941 15220 ft 414 kts 140°
2026-04-26 15:24 6.68777 124.59743 14643 ft 408 kts 140°
2026-04-26 15:24 6.66586 124.61513 14058 ft 402 kts 140°
2026-04-26 15:24 6.64391 124.63238 13460 ft 398 kts 141°
2026-04-26 15:25 6.62191 124.64915 12842 ft 394 kts 142°
2026-04-26 15:25 6.60743 124.66004 12418 ft 392 kts 142°
2026-04-26 15:25 6.57851 124.68166 11694 ft 383 kts 142°
2026-04-26 15:25 6.55751 124.69735 11161 ft 378 kts 142°
2026-04-26 15:26 6.53666 124.71303 11024 ft 361 kts 142°
2026-04-26 15:26 6.51706 124.72783 10897 ft 345 kts 142°
2026-04-26 15:26 6.49831 124.74205 10770 ft 331 kts 142°
2026-04-26 15:26 6.48054 124.75555 10646 ft 318 kts 142°
2026-04-26 15:27 6.46321 124.76873 10521 ft 307 kts 142°
2026-04-26 15:27 6.44642 124.78147 10298 ft 299 kts 142°
2026-04-26 15:27 6.42996 124.79397 10076 ft 295 kts 142°
2026-04-26 15:27 6.41360 124.80638 9927 ft 294 kts 142°
2026-04-26 15:28 6.39727 124.81877 9808 ft 294 kts 141°
2026-04-26 15:28 6.38249 124.83289 9419 ft 293 kts 127°
2026-04-26 15:28 6.37070 124.84958 8968 ft 293 kts 124°
2026-04-26 15:28 6.35901 124.86636 8512 ft 293 kts 124°
2026-04-26 15:29 6.34736 124.88302 8138 ft 291 kts 124°
2026-04-26 15:29 6.33572 124.89965 7765 ft 288 kts 124°
2026-04-26 15:29 6.31305 124.93202 6715 ft 282 kts 124°
2026-04-26 15:30 6.29052 124.96414 6097 ft 277 kts 124°
2026-04-26 15:30 6.27957 124.98007 5963 ft 276 kts 120°
2026-04-26 15:30 6.27193 124.99757 5249 ft 273 kts 106°
2026-04-26 15:31 6.26648 125.01580 4569 ft 271 kts 106°
2026-04-26 15:31 6.25619 125.04966 4228 ft 237 kts 108°
2026-04-26 15:31 6.24852 125.06377 4120 ft 227 kts 131°
2026-04-26 15:32 6.23113 125.07482 3802 ft 226 kts 165°
2026-04-26 15:32 6.20511 125.07832 3244 ft 226 kts 173°
2026-04-26 15:32 6.18968 125.08006 2927 ft 220 kts 172°
2026-04-26 15:33 6.17480 125.08181 2650 ft 209 kts 172°
2026-04-26 15:33 6.16084 125.08341 2363 ft 195 kts 172°
2026-04-26 15:33 6.14789 125.08494 2115 ft 179 kts 172°
2026-04-26 15:33 6.13629 125.08639 1875 ft 160 kts 171°
2026-04-26 15:34 6.12568 125.08772 1671 ft 149 kts 172°
2026-04-26 15:34 6.11564 125.08897 1472 ft 146 kts 171°
2026-04-26 15:34 6.10562 125.09035 1220 ft 144 kts 169°
2026-04-26 15:34 6.09578 125.09187 1042 ft 143 kts 171°
2026-04-26 15:35 6.08586 125.09284 839 ft 144 kts 173°
2026-04-26 15:35 6.07600 125.09397 638 ft 142 kts 172°
2026-04-26 15:35 6.06635 125.09518 518 ft 130 kts 172°
2026-04-26 15:35 6.05993 125.09596 514 ft 50 kts 173°
2026-04-26 15:36 6.05834 125.09618 514 ft 8 kts 159°
2026-04-26 15:36 6.05815 125.09656 514 ft 5 kts 86°
2026-04-26 15:36 6.05820 125.09690 514 ft 5 kts 82°
2026-04-26 15:36 6.05825 125.09730 514 ft 8 kts 83°
2026-04-26 15:37 6.05833 125.09796 514 ft 9 kts 83°
2026-04-26 15:37 6.05836 125.09852 514 ft 7 kts 106°
2026-04-26 15:37 6.05804 125.09870 514 ft 5 kts 174°
2026-04-26 15:37 6.05778 125.09882 514 ft 7 kts 120°
2026-04-26 15:38 6.05778 125.09934 514 ft 5 kts 82°
2026-04-26 15:38 6.05780 125.09947 514 ft 1 kts 82°
2026-04-26 15:38 6.05780 125.09948 514 ft 0 kts 82°